[[{"header":{"parameterUnit":"m.s-1","parameterCategory":2,"la1":30.2991,"la2":30.254,"lo1":-89.0895,"lo2":-89.0444,"dy":0.0017,"dx":0.0017,"nx":28,"ny":28,"refTime":"2025-04-04T21:00:00:Z","depth":"0","parameterNumber":2,"parameterNumberName":"U-component_of_CURRENTS"},"data":[0,0,0,0,0,0,0,0,0,0,0,0,0,0,0,0,0,0,0,0,0,0,0,0,0,0,0,0,0,0,0,0,0,0,0,0,0,0,0,0,0,0,0,0,0,0,0,0,0,0,0,0,0,0,0,0,0,0,-0.2703,-0.2703,0,-0.2748,-0.2749,-0.2749,-0.2725,-0.2724,-0.2723,-0.2722,-0.2724,-0.2725,-0.2726,0,0,0,0,0,0,0,0,0,0,0,0,0,-0.2614,-0.2616,-0.2703,-0.2703,-0.2704,-0.2748,-0.2749,-0.2749,-0.2725,-0.2724,-0.2722,-0.2721,-0.2724,-0.2725,-0.2726,0,0,0,0,0,0,0,0,0,0,0,0,0,-0.2654,-0.2616,-0.2703,-0.2699,-0.2699,-0.2748,-0.2749,-0.2749,-0.2725,-0.2724,-0.2722,-0.2721,-0.2723,-0.2725,-0.2727,-0.2769,0,0,-0.2732,-0.2732,0,0,0,0,0,0,0,0,-0.2652,-0.2657,-0.2698,-0.2699,-0.2699,-0.2731,-0.2719,-0.2754,-0.2726,-0.2714,-0.2722,-0.272,-0.2725,-0.2726,-0.2737,-0.2769,-0.2769,-0.2732,-0.2733,-0.2733,-0.2734,0,0,0,0,0,0,0,-0.2649,-0.2655,-0.2719,-0.2699,-0.27,-0.2701,-0.2705,-0.2725,-0.2726,-0.2715,-0.2713,-0.2721,-0.2724,-0.2735,-0.2736,-0.2769,-0.2732,-0.2733,-0.2734,-0.2735,-0.2857,-0.2859,0,0,0,0,0,0,-0.2648,-0.2653,-0.2718,-0.2721,-0.2673,-0.2704,-0.2708,-0.2721,-0.2726,-0.2726,-0.2723,-0.272,-0.2733,-0.2735,-0.2736,-0.2785,-0.2733,-0.2735,-0.2736,-0.2855,-0.2858,-0.286,0,0,0,0,0,0,-0.2646,-0.2653,-0.2716,-0.2688,-0.2697,-0.2708,-0.2722,-0.2723,-0.2727,-0.2733,-0.2732,-0.2726,-0.2732,-0.2734,-0.2761,-0.2784,-0.2736,-0.2737,-0.2852,-0.2856,-0.2859,-0.2882,0,0,0,0,0,0,-0.2643,-0.2653,-0.2657,-0.2689,-0.2698,-0.2747,-0.2724,-0.2725,-0.2736,-0.2733,-0.2736,-0.2735,-0.2731,-0.2758,-0.2762,-0.2785,-0.2738,-0.2849,-0.2854,-0.2858,-0.2879,-0.2886,-0.2893,0,0,0,0,0,-0.264,-0.2657,-0.2657,-0.2665,-0.2706,-0.2748,-0.2753,-0.2754,-0.2738,-0.2749,-0.2754,-0.2734,-0.2789,-0.2762,-0.2766,-0.279,-0.2847,-0.2853,-0.2858,-0.2876,-0.2885,-0.2892,0,0,0,0,0,0,-0.2618,-0.2657,-0.2658,-0.2684,-0.2713,-0.2744,-0.2753,-0.2758,-0.2772,-0.2763,-0.2759,-0.276,-0.2793,-0.2799,-0.2769,-0.2843,-0.2817,-0.2824,-0.283,-0.2838,-0.2845,-0.2843,-0.274,0,0,0,0,0,-0.2619,-0.2637,-0.2677,-0.2695,-0.2711,-0.2732,-0.2746,-0.2754,-0.2773,-0.2777,-0.2782,-0.2797,-0.2823,-0.2833,-0.2853,-0.2893,-0.2866,-0.2916,-0.2923,-0.2929,-0.2934,-0.291,-0.2913,-0.2877,-0.2877,-0.2877,0,0,-0.2612,-0.2637,-0.2645,-0.2691,-0.2709,-0.2753,-0.2736,-0.2765,-0.2798,-0.2777,-0.2813,-0.2817,-0.284,-0.288,-0.2897,-0.2884,-0.2926,-0.2935,-0.2939,-0.2942,-0.2915,-0.2918,-0.2921,-0.2881,-0.288,-0.2879,0,0,-0.2623,-0.2635,-0.266,-0.2695,-0.2734,-0.2758,-0.2768,-0.2805,-0.2815,-0.2858,-0.2852,-0.2869,-0.2912,-0.2927,-0.2943,-0.3006,-0.2961,-0.3021,-0.3052,-0.3029,-0.303,-0.3031,-0.2992,-0.2989,-0.3025,-0.3025,-0.3026,0,-0.2612,-0.2655,-0.2673,-0.2717,-0.2748,-0.2765,-0.281,-0.2837,-0.2876,-0.289,-0.2873,-0.293,-0.2936,-0.2987,-0.301,-0.3018,-0.2991,-0.301,-0.3033,-0.3034,-0.3034,-0.2993,-0.299,-0.3027,-0.3027,-0.3027,-0.3027,0,-0.265,-0.2689,-0.2709,-0.277,-0.2807,-0.2847,-0.2894,-0.2922,-0.2932,-0.2953,-0.2991,-0.2999,-0.3026,-0.3041,-0.3045,-0.3072,-0.3045,-0.3036,-0.2999,-0.3038,-0.2994,-0.299,-0.303,-0.3029,-0.3029,-0.3028,0,0,-0.261,-0.2716,-0.272,-0.2759,-0.2839,-0.287,-0.2936,-0.2994,-0.3019,-0.3047,-0.3072,-0.3118,-0.3098,-0.3117,-0.3116,-0.3106,-0.3081,-0.3077,-0.3075,-0.3015,-0.3012,-0.2962,-0.2952,-0.3065,-0.3065,-0.3065,-0.2974,0,-0.2631,-0.2717,-0.277,-0.2848,-0.2896,-0.2947,-0.3006,-0.3056,-0.3082,-0.3109,-0.3118,-0.3139,-0.3136,-0.3135,-0.3129,-0.3096,-0.3074,-0.3105,-0.3004,-0.3001,-0.2931,-0.2947,-0.2871,-0.2781,-0.297,-0.2969,-0.2969,0,-0.2646,-0.2705,-0.2788,-0.2889,-0.2912,-0.2961,-0.3035,-0.3089,-0.3142,-0.3158,-0.3179,-0.3176,-0.3186,-0.3159,-0.3116,-0.3133,-0.3078,-0.3044,-0.3039,-0.2981,-0.2943,-0.2778,-0.2766,-0.2759,-0.2962,-0.2962,-0.2963,0,-0.2595,-0.2711,-0.2772,-0.281,-0.2929,-0.2965,-0.3019,-0.309,-0.313,-0.3172,-0.3186,-0.3198,-0.3186,-0.3141,-0.3083,-0.3091,-0.3007,-0.3003,-0.2905,-0.2899,-0.2811,-0.2798,-0.276,-0.2954,-0.2954,-0.2954,-0.2954,0,-0.2594,-0.2638,-0.2748,-0.2782,-0.2842,-0.2932,-0.2989,-0.3044,-0.3114,-0.3141,-0.3189,-0.3195,-0.3178,-0.3136,-0.3079,-0.2976,-0.2997,-0.2907,-0.2875,-0.2818,-0.2808,-0.278,-0.2795,-0.2951,-0.2951,-0.2952,-0.2953,0,-0.2525,-0.2607,-0.2674,-0.2789,-0.282,-0.2853,-0.2964,-0.2995,-0.308,-0.3111,-0.3122,-0.3178,-0.3127,-0.3093,-0.3007,-0.2958,-0.2822,-0.2824,-0.2754,-0.2717,-0.2628,-0.2648,-0.2554,-0.2479,-0.2702,-0.27,-0.2699,0,-0.25,-0.2528,-0.264,-0.2662,-0.2711,-0.278,-0.2822,-0.2946,-0.2982,-0.3084,-0.3079,-0.3083,-0.305,-0.2938,-0.2854,-0.2739,-0.2728,-0.2606,-0.2618,-0.2611,-0.261,-0.2617,-0.2561,-0.2503,-0.25,-0.2497,-0.2495,0,-0.2428,-0.2462,-0.2507,-0.2562,-0.2606,-0.2668,-0.2738,-0.2771,-0.2897,-0.2936,-0.2962,-0.2953,-0.2895,-0.2776,-0.2667,-0.2582,-0.2561,-0.2553,-0.256,-0.2467,-0.2455,-0.237,-0.2573,-0.2474,-0.2476,-0.2477,-0.2479,-0.2479,-0.2338,-0.2343,-0.2394,-0.2432,-0.2481,-0.2516,-0.2512,-0.2601,-0.2643,-0.2675,-0.277,-0.2739,-0.2716,-0.2565,-0.2485,-0.2362,-0.2386,-0.2306,-0.2332,-0.234,-0.2271,-0.2426,-0.229,-0.2291,-0.2292,-0.2293,-0.2293,0,-0.2214,-0.223,-0.2258,-0.2294,-0.2283,-0.2365,-0.2414,-0.2382,-0.2368,-0.2464,-0.2476,-0.2502,-0.2399,-0.2377,-0.2282,-0.2186,-0.2123,-0.2133,-0.2136,-0.2086,-0.2226,-0.2224,-0.2048,-0.2048,-0.2048,-0.2048,-0.2048,-0.2048,-0.2147,-0.2121,-0.2143,-0.2079,-0.2093,-0.2026,-0.2015,-0.1996,-0.2031,-0.2038,-0.2106,-0.2204,-0.2213,-0.2359,-0.2233,-0.2125,-0.2061,-0.2002,-0.2001,-0.214,-0.2159,-0.2177,-0.2179,-0.1997,-0.1997,-0.1801,-0.18,-0.1799]},{"header":{"parameterUnit":"m.s-1","parameterCategory":2,"la1":30.2991,"la2":30.254,"lo1":-89.0895,"lo2":-89.0444,"dy":0.0017,"dx":0.0017,"nx":28,"ny":28,"refTime":"2025-04-04T21:00:00:Z","depth":"0","parameterNumber":3,"parameterNumberName":"V-component_of_CURRENTS"},"data":[0,0,0,0,0,0,0,0,0,0,0,0,0,0,0,0,0,0,0,0,0,0,0,0,0,0,0,0,0,0,0,0,0,0,0,0,0,0,0,0,0,0,0,0,0,0,0,0,0,0,0,0,0,0,0,0,0,0,-0.0236,-0.0235,0,-0.0137,-0.0136,-0.0134,-0.0059,-0.0058,-0.0058,-0.0057,0.0117,0.0121,0.0125,0,0,0,0,0,0,0,0,0,0,0,0,0,-0.0295,-0.0295,-0.0236,-0.0235,-0.0234,-0.0137,-0.0135,-0.0134,-0.0059,-0.0058,-0.0058,-0.0057,0.0115,0.012,0.0125,0,0,0,0,0,0,0,0,0,0,0,0,0,-0.0239,-0.0295,-0.0236,-0.0186,-0.0181,-0.0137,-0.0135,-0.0133,-0.0059,-0.0058,-0.0057,-0.0057,0.0114,0.012,0.0126,0.0149,0,0,0.0145,0.0148,0,0,0,0,0,0,0,0,-0.0242,-0.0236,-0.0195,-0.019,-0.0183,-0.0111,-0.0093,-0.0036,-0.0059,-0.0103,-0.0057,-0.0056,0.0046,0.0058,0.0076,0.0157,0.0164,0.0146,0.0149,0.0152,0.0154,0,0,0,0,0,0,0,-0.0246,-0.024,-0.0195,-0.0194,-0.0187,-0.0146,-0.0138,-0.0081,-0.0032,-0.0099,-0.0094,-0.0086,0.005,0.007,0.0081,0.0167,0.0145,0.0151,0.0155,0.0157,0.0295,0.0295,0,0,0,0,0,0,-0.0266,-0.0244,-0.0198,-0.0192,-0.0213,-0.0146,-0.0137,-0.0134,-0.0034,-0.0019,-0.0087,-0.0083,0.0059,0.0074,0.0087,0.0134,0.0152,0.0158,0.0161,0.0296,0.0295,0.0295,0,0,0,0,0,0,-0.0268,-0.0264,-0.0202,-0.0217,-0.0206,-0.0147,-0.0143,-0.0132,-0.011,-0.0026,-0.0009,-0.0078,0.006,0.0079,0.0136,0.0141,0.0161,0.0166,0.0296,0.0295,0.0295,0.0219,0,0,0,0,0,0,-0.027,-0.0265,-0.0271,-0.0219,-0.0206,-0.0184,-0.0144,-0.0131,-0.0108,-0.0102,-0.0012,0.0005,0.0062,0.0126,0.0142,0.015,0.0171,0.0296,0.0296,0.0295,0.0222,0.0216,0.0212,0,0,0,0,0,-0.0273,-0.0288,-0.0272,-0.0266,-0.0216,-0.0185,-0.0175,-0.0128,-0.0109,-0.0105,-0.0043,0.0002,0.0137,0.0131,0.0149,0.016,0.0296,0.0296,0.0295,0.0224,0.0217,0.0212,0,0,0,0,0,0,-0.0315,-0.028,-0.0261,-0.0264,-0.0231,-0.0173,-0.0168,-0.0136,-0.0086,-0.0078,0.0003,0.0024,0.0073,0.0125,0.0116,0.0198,0.0223,0.0227,0.0162,0.0157,0.0152,0.0145,0.0176,0,0,0,0,0,-0.033,-0.0331,-0.0287,-0.0289,-0.0277,-0.0224,-0.0207,-0.0176,-0.0125,-0.0102,-0.0041,0.0027,0.0087,0.0127,0.0181,0.0229,0.0284,0.0248,0.0243,0.0238,0.0245,0.0333,0.0337,0.0295,0.0295,0.0295,0,0,-0.0347,-0.0328,-0.0328,-0.0299,-0.0269,-0.0258,-0.0211,-0.0192,-0.0174,-0.0091,-0.005,0.0008,0.0092,0.0143,0.0171,0.019,0.0274,0.0238,0.0234,0.0243,0.0333,0.0338,0.0341,0.0295,0.0295,0.0295,0,0,-0.0387,-0.0366,-0.0382,-0.0359,-0.0325,-0.0289,-0.0288,-0.0236,-0.0203,-0.016,-0.0096,-0.0033,0.005,0.012,0.0165,0.0168,0.0237,0.0178,0.0162,0.0247,0.0251,0.0256,0.0306,0.0316,0.0186,0.0186,0.0186,0,-0.041,-0.042,-0.038,-0.0386,-0.0373,-0.0309,-0.0316,-0.0273,-0.0207,-0.0174,-0.0159,-0.0019,0.0045,0.0133,0.013,0.0159,0.0204,0.0175,0.0241,0.0247,0.0253,0.0304,0.0316,0.0182,0.0183,0.0183,0.0184,0,-0.0456,-0.0462,-0.0469,-0.0454,-0.0431,-0.0429,-0.0368,-0.0337,-0.0292,-0.0237,-0.0156,-0.0065,0.0023,0.0051,0.0093,0.0169,0.0183,0.0214,0.0253,0.0252,0.0306,0.0319,0.0177,0.0178,0.018,0.018,0,0,-0.0512,-0.0507,-0.0508,-0.0515,-0.0469,-0.0457,-0.0422,-0.0365,-0.033,-0.0254,-0.0198,-0.0093,-0.0038,0.0016,0.0085,0.0165,0.0233,0.02,0.0206,0.0244,0.0397,0.0425,0.0443,0.0275,0.0278,0.028,0.0407,0,-0.0561,-0.0602,-0.057,-0.0589,-0.0603,-0.0531,-0.0501,-0.0435,-0.0362,-0.0292,-0.0173,-0.0099,-0.0051,-0.0009,0.0076,0.02,0.027,0.0194,0.0397,0.0403,0.0426,0.0461,0.0522,0.0643,0.0421,0.0423,0.0425,0,-0.0614,-0.0635,-0.0676,-0.0662,-0.0657,-0.0649,-0.0581,-0.0545,-0.0419,-0.0359,-0.0253,-0.0159,-0.0029,0.0004,0.0218,0.0165,0.0266,0.0361,0.0369,0.0438,0.0459,0.0615,0.0678,0.0861,0.0447,0.0445,0.0443,0,-0.0687,-0.0702,-0.0742,-0.074,-0.0712,-0.0702,-0.0673,-0.0569,-0.053,-0.0397,-0.0345,-0.018,-0.0091,0.0066,0.0252,0.0238,0.0484,0.0495,0.0616,0.0617,0.0733,0.0741,0.0999,0.0641,0.0641,0.064,0.064,0,-0.0756,-0.0782,-0.0783,-0.0807,-0.0835,-0.0779,-0.0767,-0.0705,-0.0604,-0.0549,-0.0393,-0.0304,-0.0069,0.01,0.0251,0.0479,0.0487,0.0626,0.0667,0.0704,0.0707,0.0922,0.0972,0.0645,0.0644,0.0643,0.0642,0,-0.0832,-0.0833,-0.088,-0.0877,-0.0878,-0.0898,-0.0857,-0.0835,-0.0726,-0.0648,-0.0608,-0.0383,-0.0149,0.0082,0.0359,0.0484,0.0809,0.0766,0.0773,0.0813,0.108,0.112,0.1387,0.1486,0.0923,0.0924,0.0926,0,-0.0876,-0.0914,-0.0951,-0.0985,-0.0991,-0.1005,-0.1007,-0.0917,-0.088,-0.0691,-0.0654,-0.0405,-0.0208,0.0205,0.0495,0.0786,0.0909,0.0982,0.0977,0.1125,0.1201,0.1222,0.1287,0.1091,0.1094,0.1096,0.1098,0,-0.0958,-0.0971,-0.1012,-0.1093,-0.1123,-0.1142,-0.1129,-0.112,-0.099,-0.0886,-0.0699,-0.0521,-0.0088,0.0306,0.0686,0.0859,0.112,0.1034,0.122,0.1385,0.1399,0.1502,0.0944,0.1117,0.1115,0.1114,0.1113,0.1112,-0.1008,-0.1064,-0.1123,-0.1193,-0.1234,-0.126,-0.1268,-0.1212,-0.1139,-0.0949,-0.0761,-0.0438,0.0143,0.0715,0.0913,0.1364,0.1294,0.1497,0.1539,0.1551,0.1644,0.1101,0.1296,0.1295,0.1294,0.1293,0.1293,0,-0.107,-0.113,-0.1214,-0.1291,-0.1352,-0.1341,-0.133,-0.129,-0.1198,-0.0964,-0.0738,-0.0054,0.0498,0.101,0.164,0.1868,0.1915,0.1979,0.2058,0.2104,0.168,0.1686,0.1936,0.1936,0.1936,0.1936,0.1935,0.1935,-0.1103,-0.1203,-0.1252,-0.1373,-0.142,-0.1456,-0.1446,-0.1343,-0.1169,-0.076,-0.0353,-0.0009,0.0746,0.1742,0.2316,0.2362,0.2548,0.252,0.2604,0.2342,0.2301,0.2262,0.2285,0.2657,0.2657,0.3043,0.3047,0.305]}],[{"header":{"parameterUnit":"m.s-1","parameterCategory":2,"la1":30.2991,"la2":30.254,"lo1":-89.0895,"lo2":-89.0444,"dy":0.0017,"dx":0.0017,"nx":28,"ny":28,"refTime":"2025-04-04T21:00:00:Z","depth":"2","parameterNumber":2,"parameterNumberName":"U-component_of_CURRENTS"},"data":[0,0,0,0,0,0,0,0,0,0,0,0,0,0,0,0,0,0,0,0,0,0,0,0,0,0,0,0,0,0,0,0,0,0,0,0,0,0,0,0,0,0,0,0,0,0,0,0,0,0,0,0,0,0,0,0,0,0,-0.2567,-0.2567,0,-0.2607,-0.2607,-0.2608,-0.2587,-0.2586,-0.2585,-0.2584,-0.2584,-0.2585,-0.2585,0,0,0,0,0,0,0,0,0,0,0,0,0,-0.2484,-0.2486,-0.2566,-0.2567,-0.2568,-0.2607,-0.2607,-0.2608,-0.2587,-0.2586,-0.2585,-0.2584,-0.2584,-0.2585,-0.2586,0,0,0,0,0,0,0,0,0,0,0,0,0,-0.252,-0.2486,-0.2566,-0.2564,-0.2564,-0.2607,-0.2607,-0.2608,-0.2587,-0.2586,-0.2585,-0.2584,-0.2583,-0.2584,-0.2586,-0.2621,0,0,-0.2589,-0.259,0,0,0,0,0,0,0,0,-0.2518,-0.2523,-0.2563,-0.2564,-0.2564,-0.2592,-0.2578,-0.2611,-0.2588,-0.2577,-0.2584,-0.2583,-0.2585,-0.2586,-0.2595,-0.2621,-0.262,-0.259,-0.259,-0.2591,-0.2591,0,0,0,0,0,0,0,-0.2516,-0.2521,-0.2581,-0.2564,-0.2565,-0.2565,-0.2568,-0.2584,-0.2586,-0.2578,-0.2577,-0.2584,-0.2584,-0.2594,-0.2594,-0.262,-0.259,-0.2591,-0.2591,-0.2592,-0.2698,-0.27,0,0,0,0,0,0,-0.2516,-0.2519,-0.2579,-0.2582,-0.2539,-0.2568,-0.2571,-0.2583,-0.2587,-0.2587,-0.2585,-0.2583,-0.2592,-0.2593,-0.2594,-0.264,-0.2591,-0.2592,-0.2593,-0.2696,-0.2698,-0.2701,0,0,0,0,0,0,-0.2514,-0.2521,-0.2578,-0.2552,-0.256,-0.2571,-0.2584,-0.2585,-0.2591,-0.2593,-0.2592,-0.259,-0.2591,-0.2593,-0.2616,-0.2639,-0.2593,-0.2594,-0.2693,-0.2697,-0.27,-0.2729,0,0,0,0,0,0,-0.2511,-0.252,-0.2525,-0.2553,-0.2561,-0.2606,-0.2586,-0.2587,-0.2599,-0.2596,-0.2598,-0.2596,-0.259,-0.2615,-0.2618,-0.264,-0.2595,-0.2691,-0.2695,-0.2699,-0.2725,-0.2733,-0.2739,0,0,0,0,0,-0.2508,-0.2524,-0.2525,-0.2532,-0.257,-0.2607,-0.2612,-0.2613,-0.26,-0.2611,-0.2615,-0.2596,-0.2642,-0.2617,-0.262,-0.2644,-0.2689,-0.2694,-0.2698,-0.2722,-0.2731,-0.2739,0,0,0,0,0,0,-0.2489,-0.2525,-0.2526,-0.2551,-0.2578,-0.2604,-0.2614,-0.2618,-0.2631,-0.2625,-0.2619,-0.2619,-0.2649,-0.2651,-0.2625,-0.269,-0.2664,-0.267,-0.2682,-0.269,-0.2697,-0.2696,-0.2596,0,0,0,0,0,-0.249,-0.2508,-0.2544,-0.2561,-0.2576,-0.2595,-0.2609,-0.2616,-0.2634,-0.2637,-0.2641,-0.2653,-0.2675,-0.2683,-0.27,-0.2735,-0.2709,-0.2757,-0.2763,-0.2769,-0.2773,-0.2752,-0.2755,-0.2716,-0.2716,-0.2716,0,0,-0.2485,-0.2507,-0.2516,-0.2558,-0.2574,-0.2614,-0.2599,-0.2627,-0.2657,-0.2637,-0.267,-0.2674,-0.269,-0.2727,-0.2741,-0.2728,-0.2767,-0.2775,-0.2779,-0.2781,-0.2757,-0.276,-0.2763,-0.2719,-0.2719,-0.2718,0,0,-0.2494,-0.2508,-0.253,-0.2562,-0.2599,-0.2621,-0.2631,-0.2665,-0.2675,-0.2715,-0.2708,-0.2725,-0.2761,-0.2773,-0.2786,-0.2844,-0.2802,-0.2857,-0.2889,-0.2868,-0.287,-0.2872,-0.2834,-0.2832,-0.2862,-0.2862,-0.2862,0,-0.2485,-0.2524,-0.2542,-0.2582,-0.261,-0.2627,-0.2668,-0.2693,-0.2729,-0.2742,-0.2729,-0.2779,-0.2784,-0.2828,-0.2851,-0.2856,-0.2832,-0.285,-0.2873,-0.2874,-0.2875,-0.2836,-0.2834,-0.2864,-0.2863,-0.2863,-0.2863,0,-0.2519,-0.2555,-0.2573,-0.2629,-0.2662,-0.2699,-0.2743,-0.277,-0.2782,-0.2801,-0.2838,-0.2845,-0.2869,-0.2883,-0.2886,-0.2912,-0.2887,-0.2877,-0.2841,-0.288,-0.2838,-0.2834,-0.2866,-0.2866,-0.2865,-0.2865,0,0,-0.2483,-0.2578,-0.2583,-0.2617,-0.2691,-0.2719,-0.278,-0.2833,-0.2857,-0.2885,-0.2909,-0.2952,-0.2938,-0.2953,-0.2953,-0.2945,-0.2927,-0.292,-0.2918,-0.2864,-0.2865,-0.2813,-0.2803,-0.2914,-0.2914,-0.2914,-0.2829,0,-0.25,-0.2576,-0.2626,-0.2695,-0.2737,-0.2786,-0.2839,-0.2886,-0.2913,-0.2939,-0.295,-0.2972,-0.2972,-0.2974,-0.297,-0.2941,-0.2921,-0.295,-0.2854,-0.2851,-0.2783,-0.2799,-0.2597,-0.2502,-0.2825,-0.2824,-0.2824,0,-0.2511,-0.2564,-0.2637,-0.2727,-0.2749,-0.2794,-0.2863,-0.2913,-0.2964,-0.2983,-0.3006,-0.3006,-0.3019,-0.2998,-0.2961,-0.2977,-0.2928,-0.2896,-0.2891,-0.283,-0.2792,-0.252,-0.2483,-0.2817,-0.2818,-0.2818,-0.2819,0,-0.2461,-0.2565,-0.262,-0.2654,-0.2762,-0.2797,-0.2847,-0.2915,-0.2952,-0.2997,-0.3013,-0.3028,-0.3022,-0.2982,-0.2932,-0.294,-0.2864,-0.286,-0.2763,-0.2758,-0.2562,-0.254,-0.2815,-0.2815,-0.2816,-0.2816,-0.2816,0,-0.2456,-0.2495,-0.2598,-0.2628,-0.2681,-0.2766,-0.2819,-0.2872,-0.2941,-0.2966,-0.3018,-0.3026,-0.3017,-0.298,-0.2928,-0.2833,-0.2855,-0.2766,-0.2735,-0.2568,-0.2549,-0.281,-0.2811,-0.2813,-0.2813,-0.2814,-0.2815,0,-0.239,-0.2466,-0.2524,-0.2631,-0.266,-0.269,-0.2796,-0.2825,-0.291,-0.2941,-0.2954,-0.3013,-0.2968,-0.294,-0.2863,-0.2815,-0.2734,-0.2688,-0.2492,-0.2441,-0.264,-0.2643,-0.2573,-0.257,-0.2568,-0.2566,-0.2565,0,-0.2365,-0.2389,-0.2491,-0.2512,-0.2558,-0.2623,-0.2661,-0.2781,-0.2814,-0.2916,-0.291,-0.292,-0.2889,-0.2786,-0.2688,-0.2575,-0.2652,-0.2342,-0.2334,-0.2639,-0.2616,-0.2623,-0.263,-0.2073,-0.2067,-0.2063,-0.2059,0,-0.2293,-0.2326,-0.2365,-0.2415,-0.2456,-0.2511,-0.2577,-0.2607,-0.2728,-0.2766,-0.2792,-0.2784,-0.2716,-0.2524,-0.2414,-0.2324,-0.2352,-0.2251,-0.2589,-0.2189,-0.2167,-0.2146,-0.2168,-0.202,-0.2024,-0.2027,-0.2029,-0.203,-0.2208,-0.221,-0.2255,-0.2288,-0.2333,-0.2362,-0.2355,-0.2431,-0.2466,-0.2467,-0.2573,-0.2477,-0.2449,-0.2176,-0.2057,-0.1959,-0.2118,-0.2015,-0.2028,-0.2045,-0.2027,-0.2005,-0.1822,-0.1824,-0.1826,-0.1829,-0.183,0,-0.2083,-0.2099,-0.2123,-0.2152,-0.2133,-0.2218,-0.2258,-0.2201,-0.2172,-0.2205,-0.2192,-0.1942,-0.184,-0.181,-0.1607,-0.1582,-0.1555,-0.1512,-0.1474,-0.1513,-0.1549,-0.1505,-0.1161,-0.1159,-0.1157,-0.1155,0,0,-0.2016,-0.1984,-0.2002,-0.1932,-0.1949,-0.187,-0.1857,-0.1788,-0.1763,-0.1644,-0.159,-0.172,-0.1756,-0.1453,-0.139,-0.1246,-0.1362,-0.118,-0.1715,-0.1709,-0.1742,-0.1835,-0.1812,0,0,0,0,0]},{"header":{"parameterUnit":"m.s-1","parameterCategory":2,"la1":30.2991,"la2":30.254,"lo1":-89.0895,"lo2":-89.0444,"dy":0.0017,"dx":0.0017,"nx":28,"ny":28,"refTime":"2025-04-04T21:00:00:Z","depth":"2","parameterNumber":3,"parameterNumberName":"V-component_of_CURRENTS"},"data":[0,0,0,0,0,0,0,0,0,0,0,0,0,0,0,0,0,0,0,0,0,0,0,0,0,0,0,0,0,0,0,0,0,0,0,0,0,0,0,0,0,0,0,0,0,0,0,0,0,0,0,0,0,0,0,0,0,0,-0.0276,-0.0275,0,-0.0181,-0.018,-0.0179,-0.0106,-0.0105,-0.0105,-0.0104,0.0062,0.0066,0.007,0,0,0,0,0,0,0,0,0,0,0,0,0,-0.0334,-0.0334,-0.0276,-0.0275,-0.0274,-0.0181,-0.018,-0.0178,-0.0106,-0.0105,-0.0105,-0.0104,0.0061,0.0065,0.007,0,0,0,0,0,0,0,0,0,0,0,0,0,-0.028,-0.0334,-0.0277,-0.0228,-0.0223,-0.0182,-0.018,-0.0178,-0.0106,-0.0105,-0.0105,-0.0104,0.0059,0.0065,0.0071,0.0092,0,0,0.0089,0.0091,0,0,0,0,0,0,0,0,-0.0283,-0.0278,-0.0236,-0.0232,-0.0226,-0.0156,-0.0139,-0.0085,-0.0106,-0.0149,-0.0104,-0.0104,-0.0006,0.0005,0.0023,0.0099,0.0107,0.0089,0.0093,0.0095,0.0097,0,0,0,0,0,0,0,-0.0287,-0.0281,-0.0237,-0.0235,-0.0229,-0.0191,-0.0182,-0.0129,-0.008,-0.0145,-0.014,-0.0132,-0.0002,0.0017,0.0027,0.0109,0.0089,0.0094,0.0098,0.01,0.0227,0.0227,0,0,0,0,0,0,-0.0306,-0.0285,-0.024,-0.0234,-0.0255,-0.0191,-0.0181,-0.0178,-0.0082,-0.0068,-0.0133,-0.0129,0.0006,0.002,0.0034,0.0075,0.0095,0.0101,0.0104,0.0227,0.0227,0.0227,0,0,0,0,0,0,-0.0308,-0.0304,-0.0244,-0.0258,-0.0248,-0.0191,-0.0187,-0.0176,-0.0156,-0.0074,-0.0058,-0.0124,0.0008,0.0025,0.0079,0.0081,0.0104,0.0109,0.0227,0.0227,0.0227,0.0151,0,0,0,0,0,0,-0.031,-0.0305,-0.031,-0.026,-0.0248,-0.0227,-0.0188,-0.0175,-0.0153,-0.0147,-0.0061,-0.0045,0.0009,0.0069,0.0084,0.009,0.0114,0.0227,0.0227,0.0227,0.0153,0.0148,0.0143,0,0,0,0,0,-0.0313,-0.0327,-0.0311,-0.0305,-0.0257,-0.0228,-0.0219,-0.0173,-0.0154,-0.0151,-0.0091,-0.0047,0.0078,0.0074,0.0092,0.0099,0.0228,0.0227,0.0227,0.0156,0.0149,0.0143,0,0,0,0,0,0,-0.0353,-0.0319,-0.0301,-0.0303,-0.0272,-0.0217,-0.0211,-0.0181,-0.0133,-0.0125,-0.0048,-0.0028,0.0017,0.0066,0.006,0.0133,0.0159,0.0162,0.0099,0.0093,0.0088,0.008,0.0118,0,0,0,0,0,-0.0367,-0.0369,-0.0326,-0.0328,-0.0317,-0.0266,-0.0249,-0.0219,-0.0171,-0.0149,-0.009,-0.0026,0.0028,0.0066,0.0117,0.0161,0.0215,0.0177,0.0171,0.0167,0.0172,0.0257,0.026,0.0225,0.0225,0.0225,0,0,-0.0384,-0.0365,-0.0365,-0.0337,-0.0308,-0.03,-0.0253,-0.0235,-0.022,-0.0138,-0.0101,-0.0046,0.0033,0.0078,0.0104,0.0123,0.02,0.0166,0.0162,0.017,0.0257,0.026,0.0263,0.0225,0.0225,0.0225,0,0,-0.0422,-0.0402,-0.0417,-0.0396,-0.0364,-0.033,-0.0329,-0.0279,-0.0248,-0.0209,-0.0148,-0.009,-0.0011,0.0053,0.0094,0.0093,0.0162,0.0103,0.0084,0.0165,0.0169,0.0173,0.0224,0.0234,0.011,0.011,0.011,0,-0.0445,-0.0456,-0.0416,-0.0423,-0.0412,-0.035,-0.0359,-0.0319,-0.0256,-0.0226,-0.0209,-0.008,-0.0019,0.0059,0.0055,0.0083,0.0129,0.0099,0.0159,0.0164,0.017,0.0222,0.0233,0.0106,0.0107,0.0107,0.0107,0,-0.0491,-0.0498,-0.0506,-0.0493,-0.0473,-0.0472,-0.0415,-0.0387,-0.0344,-0.0292,-0.0218,-0.0131,-0.005,-0.0024,0.0017,0.0086,0.0103,0.0134,0.0173,0.0169,0.0223,0.0236,0.0101,0.0102,0.0103,0.0104,0,0,-0.0544,-0.0543,-0.0544,-0.0553,-0.0511,-0.0502,-0.0472,-0.0421,-0.0391,-0.0319,-0.0269,-0.0171,-0.0116,-0.0066,0.0,0.0077,0.0143,0.0114,0.012,0.016,0.0303,0.033,0.0348,0.0185,0.0187,0.0189,0.0317,0,-0.0594,-0.0637,-0.0608,-0.0631,-0.0648,-0.058,-0.0556,-0.0496,-0.0427,-0.0363,-0.0251,-0.0181,-0.0133,-0.0092,-0.0012,0.011,0.0178,0.0104,0.0306,0.0312,0.0334,0.0365,0.03,0.0412,0.0331,0.0333,0.0335,0,-0.0648,-0.067,-0.0715,-0.0707,-0.0704,-0.0699,-0.064,-0.0608,-0.0492,-0.0435,-0.0335,-0.0244,-0.0121,-0.0085,0.0122,0.0071,0.0173,0.0267,0.0275,0.034,0.0365,0.0409,0.0439,0.0357,0.0356,0.0354,0.0352,0,-0.0718,-0.0739,-0.0781,-0.0781,-0.0759,-0.0753,-0.0728,-0.0633,-0.0598,-0.0474,-0.0424,-0.0268,-0.0181,-0.0027,0.0157,0.0144,0.0384,0.0395,0.0514,0.0516,0.0523,0.0523,0.0536,0.0536,0.0536,0.0536,0.0535,0,-0.0788,-0.0816,-0.0821,-0.0847,-0.0878,-0.0827,-0.0821,-0.0764,-0.0671,-0.0621,-0.0472,-0.0387,-0.0159,0.0006,0.0155,0.0379,0.0387,0.0522,0.0564,0.0492,0.0487,0.0492,0.0486,0.054,0.0539,0.0538,0.0538,0,-0.0862,-0.0865,-0.0915,-0.0918,-0.092,-0.0942,-0.0907,-0.089,-0.0788,-0.0715,-0.0677,-0.046,-0.0231,-0.0008,0.0264,0.0384,0.0589,0.066,0.0545,0.0572,0.0659,0.0646,0.0808,0.081,0.0812,0.0814,0.0815,0,-0.0906,-0.0944,-0.0985,-0.102,-0.1027,-0.1045,-0.1049,-0.0967,-0.0934,-0.0754,-0.072,-0.0478,-0.0289,0.0113,0.0373,0.0652,0.0657,0.0743,0.0718,0.0669,0.0693,0.0677,0.0663,0.0686,0.0686,0.0686,0.0687,0,-0.0987,-0.1,-0.1042,-0.1124,-0.1155,-0.1177,-0.1169,-0.1162,-0.104,-0.0942,-0.0762,-0.0592,-0.0192,0.0122,0.0482,0.0633,0.0694,0.0756,0.0768,0.0624,0.0565,0.0584,0.0572,0.0688,0.0688,0.0688,0.0688,0.0688,-0.1036,-0.1091,-0.115,-0.122,-0.1263,-0.1291,-0.1301,-0.125,-0.1182,-0.1008,-0.083,-0.055,-0.023,0.0284,0.0533,0.0756,0.0767,0.0807,0.0802,0.0798,0.0759,0.0706,0.0847,0.0847,0.0848,0.0849,0.0849,0,-0.1095,-0.1156,-0.1239,-0.1316,-0.1376,-0.1368,-0.1362,-0.1322,-0.1236,-0.1038,-0.0832,-0.0474,-0.0107,0.0223,0.0574,0.0797,0.077,0.0824,0.0734,0.0731,0.0729,0.0682,0.0753,0.0753,0.0753,0.0754,0,0,-0.1128,-0.1226,-0.1274,-0.1392,-0.1441,-0.1476,-0.1468,-0.1369,-0.1221,-0.1016,-0.0807,-0.051,-0.01,0.0125,0.0405,0.0585,0.0598,0.0599,0.0651,0.0509,0.0504,0.0695,0.0618,0,0,0,0,0]}],[{"header":{"parameterUnit":"m.s-1","parameterCategory":2,"la1":30.2991,"la2":30.254,"lo1":-89.0895,"lo2":-89.0444,"dy":0.0017,"dx":0.0017,"nx":28,"ny":28,"refTime":"2025-04-04T21:00:00:Z","depth":"4","parameterNumber":2,"parameterNumberName":"U-component_of_CURRENTS"},"data":[0,0,0,0,0,0,0,0,0,0,0,0,0,0,0,0,0,0,0,0,0,0,0,0,0,0,0,0,0,0,0,0,0,0,0,0,0,0,0,0,0,0,0,0,0,0,0,0,0,0,0,0,0,0,0,0,0,0,-0.1716,-0.1717,0,-0.1783,-0.1784,-0.1784,-0.1821,-0.1821,-0.1821,-0.1821,-0.1871,-0.1872,-0.1873,0,0,0,0,0,0,0,0,0,0,0,0,0,-0.1615,-0.1617,-0.1716,-0.1717,-0.1718,-0.1783,-0.1784,-0.1785,-0.1821,-0.1821,-0.1821,-0.1822,-0.1871,-0.1872,-0.1873,0,0,0,0,0,0,0,0,0,0,0,0,0,-0.1667,-0.1617,-0.1716,-0.1745,-0.1749,-0.1783,-0.1784,-0.1785,-0.1821,-0.1821,-0.1821,-0.1822,-0.187,-0.1872,-0.1873,-0.1876,0,0,-0.1878,-0.1879,0,0,0,0,0,0,0,0,-0.1664,-0.167,-0.174,-0.1743,-0.1747,-0.1795,-0.1766,-0.1815,-0.1821,-0.1792,-0.1821,-0.1822,-0.1845,-0.1849,-0.1858,-0.1879,-0.1881,-0.1879,-0.188,-0.188,-0.1881,0,0,0,0,0,0,0,-0.166,-0.1668,-0.1741,-0.1741,-0.1746,-0.1754,-0.1761,-0.1776,-0.1814,-0.1794,-0.1797,-0.1807,-0.1847,-0.1857,-0.186,-0.1882,-0.1879,-0.188,-0.1881,-0.1882,-0.1982,-0.1983,0,0,0,0,0,0,-0.1655,-0.1664,-0.1739,-0.1743,-0.1707,-0.1755,-0.1764,-0.1778,-0.1814,-0.1821,-0.1807,-0.1809,-0.1854,-0.1858,-0.1862,-0.1935,-0.188,-0.1882,-0.1883,-0.198,-0.1982,-0.1984,0,0,0,0,0,0,-0.1653,-0.1662,-0.1736,-0.1706,-0.1717,-0.1757,-0.1773,-0.1779,-0.1818,-0.1824,-0.183,-0.1842,-0.1854,-0.1859,-0.1904,-0.1934,-0.1883,-0.1884,-0.1978,-0.1981,-0.1983,-0.2037,0,0,0,0,0,0,-0.165,-0.166,-0.1683,-0.1706,-0.1718,-0.1776,-0.1773,-0.1781,-0.1822,-0.1826,-0.1856,-0.1859,-0.1855,-0.1902,-0.1905,-0.1935,-0.1885,-0.1976,-0.1979,-0.1982,-0.2033,-0.2041,-0.2048,0,0,0,0,0,-0.1646,-0.1671,-0.1683,-0.1693,-0.1743,-0.1777,-0.1785,-0.1812,-0.1824,-0.1847,-0.1871,-0.186,-0.1924,-0.1904,-0.1909,-0.194,-0.1975,-0.1978,-0.1982,-0.203,-0.204,-0.2048,0,0,0,0,0,0,-0.164,-0.1678,-0.1692,-0.1728,-0.176,-0.1784,-0.1812,-0.183,-0.1868,-0.188,-0.1882,-0.1888,-0.1936,-0.1934,-0.1912,-0.1979,-0.1947,-0.1952,-0.1982,-0.1991,-0.1999,-0.1989,-0.1887,0,0,0,0,0,-0.1649,-0.1678,-0.1711,-0.1743,-0.1762,-0.1793,-0.1816,-0.1837,-0.1866,-0.1885,-0.1907,-0.193,-0.1951,-0.1969,-0.1986,-0.2024,-0.1999,-0.2048,-0.2055,-0.2061,-0.2058,-0.2041,-0.2046,-0.1996,-0.1996,-0.1996,0,0,-0.1655,-0.168,-0.1698,-0.1744,-0.1771,-0.1806,-0.1808,-0.1854,-0.1888,-0.1883,-0.1946,-0.1959,-0.1967,-0.201,-0.2031,-0.2015,-0.2066,-0.2066,-0.2071,-0.2064,-0.2045,-0.205,-0.2054,-0.1999,-0.1999,-0.1998,0,0,-0.1672,-0.1707,-0.1735,-0.1766,-0.1815,-0.1836,-0.1856,-0.1901,-0.193,-0.1986,-0.1989,-0.2019,-0.2065,-0.2068,-0.2075,-0.2134,-0.2104,-0.2152,-0.2183,-0.2168,-0.2171,-0.2173,-0.2157,-0.2158,-0.2156,-0.2156,-0.2156,0,-0.168,-0.1718,-0.1749,-0.1784,-0.1815,-0.1853,-0.1889,-0.1925,-0.1982,-0.2003,-0.2016,-0.2074,-0.2086,-0.2115,-0.2143,-0.2149,-0.2137,-0.2147,-0.2175,-0.2177,-0.2178,-0.2161,-0.216,-0.2159,-0.2159,-0.2159,-0.2158,0,-0.1707,-0.1752,-0.1773,-0.1829,-0.1867,-0.1907,-0.1955,-0.2002,-0.2043,-0.2068,-0.2121,-0.2139,-0.2166,-0.2183,-0.2186,-0.2211,-0.2199,-0.2183,-0.2146,-0.2186,-0.2166,-0.2165,-0.2164,-0.2162,-0.2162,-0.2161,0,0,-0.168,-0.1773,-0.1783,-0.1817,-0.1895,-0.1923,-0.1991,-0.2045,-0.208,-0.2137,-0.2171,-0.2219,-0.2227,-0.2235,-0.2241,-0.2238,-0.2249,-0.2227,-0.2225,-0.2201,-0.222,-0.2089,-0.2075,-0.224,-0.224,-0.224,-0.2204,0,-0.1691,-0.1757,-0.1807,-0.1876,-0.191,-0.1973,-0.2027,-0.2084,-0.2132,-0.2176,-0.2198,-0.2236,-0.2247,-0.2267,-0.2268,-0.2254,-0.2248,-0.226,-0.2194,-0.2192,-0.2061,-0.2069,-0.224,-0.2203,-0.2202,-0.2202,-0.2202,0,-0.1689,-0.1736,-0.1804,-0.1892,-0.1915,-0.1968,-0.2049,-0.2103,-0.2169,-0.2206,-0.2245,-0.2263,-0.2289,-0.2283,-0.2272,-0.2284,-0.2261,-0.2241,-0.2239,-0.2092,-0.2058,-0.2154,-0.2199,-0.2199,-0.22,-0.22,-0.22,0,-0.1627,-0.1728,-0.1782,-0.1815,-0.1922,-0.1971,-0.2031,-0.2111,-0.2154,-0.2225,-0.2255,-0.2283,-0.2304,-0.2282,-0.2266,-0.2274,-0.2231,-0.2226,-0.2082,-0.2073,-0.2178,-0.2176,-0.2199,-0.2199,-0.2199,-0.2199,-0.2199,0,-0.1595,-0.164,-0.1764,-0.1791,-0.1854,-0.1945,-0.2013,-0.2077,-0.216,-0.2187,-0.2266,-0.2275,-0.2308,-0.2292,-0.2264,-0.2162,-0.2226,-0.2077,-0.2047,-0.2205,-0.2206,-0.2177,-0.2175,-0.2198,-0.2198,-0.2199,-0.2199,0,-0.1508,-0.1596,-0.1659,-0.1784,-0.1827,-0.1871,-0.2001,-0.2034,-0.214,-0.2177,-0.2202,-0.2277,-0.2254,-0.2257,-0.2216,-0.2144,-0.2067,-0.2015,-0.2186,-0.217,-0.1924,-0.1926,-0.1841,-0.1836,-0.1832,-0.1828,-0.1825,0,-0.1466,-0.1493,-0.1631,-0.1666,-0.1729,-0.1818,-0.1865,-0.2,-0.2029,-0.2148,-0.2135,-0.2177,-0.2198,-0.2034,-0.2062,-0.1978,-0.1957,-0.1912,-0.1914,-0.1903,-0.1884,-0.1893,-0.19,-0.1819,-0.1817,-0.1816,-0.1815,0,-0.137,-0.1436,-0.1483,-0.156,-0.1626,-0.169,-0.1773,-0.1784,-0.1913,-0.2033,-0.2008,-0.1991,-0.1963,-0.1928,-0.1881,-0.1824,-0.1935,-0.1866,-0.1875,-0.1877,-0.1874,-0.1862,-0.1874,-0.18,-0.1802,-0.1804,-0.1805,0,-0.1291,-0.13,-0.1372,-0.1421,-0.1498,-0.1521,-0.1597,-0.163,-0.1685,-0.1824,-0.1806,-0.1855,-0.1934,-0.1846,-0.1797,-0.1736,-0.1709,-0.165,-0.1669,-0.1686,-0.1651,-0.1626,-0.1437,0,0,0,0,0,-0.1197,-0.1187,-0.1224,-0.127,-0.1341,-0.1386,-0.1502,-0.1582,-0.1712,-0.1641,-0.1723,-0.1688,-0.1642,-0.1674,-0.1572,-0.1716,-0.1708,-0.1591,-0.165,-0.1718,-0.1735,-0.1707,0,0,0,0,0,0,-0.1131,-0.1153,-0.1167,-0.1124,-0.1126,-0.1189,-0.1257,-0.1359,-0.1338,-0.1478,-0.1457,-0.157,-0.1543,-0.1654,-0.1527,-0.1534,-0.1534,-0.1635,-0.163,-0.1708,-0.1723,-0.1737,-0.1715,0,0,0,0,0]},{"header":{"parameterUnit":"m.s-1","parameterCategory":2,"la1":30.2991,"la2":30.254,"lo1":-89.0895,"lo2":-89.0444,"dy":0.0017,"dx":0.0017,"nx":28,"ny":28,"refTime":"2025-04-04T21:00:00:Z","depth":"4","parameterNumber":3,"parameterNumberName":"V-component_of_CURRENTS"},"data":[0,0,0,0,0,0,0,0,0,0,0,0,0,0,0,0,0,0,0,0,0,0,0,0,0,0,0,0,0,0,0,0,0,0,0,0,0,0,0,0,0,0,0,0,0,0,0,0,0,0,0,0,0,0,0,0,0,0,-0.0237,-0.0237,0,-0.0176,-0.0176,-0.0175,-0.0129,-0.0129,-0.0129,-0.0128,-0.0011,-0.0009,-0.0006,0,0,0,0,0,0,0,0,0,0,0,0,0,-0.0274,-0.0274,-0.0237,-0.0237,-0.0236,-0.0177,-0.0176,-0.0175,-0.0129,-0.0129,-0.0129,-0.0128,-0.0012,-0.0009,-0.0006,0,0,0,0,0,0,0,0,0,0,0,0,0,-0.0239,-0.0273,-0.0237,-0.0207,-0.0204,-0.0177,-0.0176,-0.0174,-0.0129,-0.0129,-0.0129,-0.0128,-0.0014,-0.0009,-0.0005,0.0013,0,0,0.0008,0.001,0,0,0,0,0,0,0,0,-0.0241,-0.0237,-0.0212,-0.0209,-0.0206,-0.0161,-0.0146,-0.0109,-0.0129,-0.0156,-0.0128,-0.0128,-0.0058,-0.005,-0.0038,0.0019,0.0024,0.0008,0.0011,0.0013,0.0014,0,0,0,0,0,0,0,-0.0243,-0.0239,-0.0212,-0.0212,-0.0208,-0.0183,-0.0178,-0.0138,-0.0108,-0.0154,-0.0151,-0.0147,-0.0055,-0.0042,-0.0035,0.0026,0.0008,0.0012,0.0015,0.0016,0.0093,0.0092,0,0,0,0,0,0,-0.0256,-0.0242,-0.0214,-0.021,-0.0224,-0.0183,-0.0177,-0.0175,-0.0109,-0.01,-0.0147,-0.0145,-0.005,-0.004,-0.003,-0.0016,0.0013,0.0017,0.0019,0.0094,0.0093,0.0092,0,0,0,0,0,0,-0.0258,-0.0255,-0.0216,-0.0226,-0.0219,-0.0184,-0.0181,-0.0174,-0.0163,-0.0105,-0.0094,-0.0144,-0.0049,-0.0036,-0.0002,-0.001,0.0019,0.0023,0.0094,0.0093,0.0093,0.0021,0,0,0,0,0,0,-0.0259,-0.0255,-0.0261,-0.0227,-0.0219,-0.0208,-0.0181,-0.0173,-0.0161,-0.0158,-0.0098,-0.0087,-0.0048,-0.0009,0.0002,-0.0004,0.0026,0.0095,0.0094,0.0093,0.0024,0.0018,0.0013,0,0,0,0,0,-0.026,-0.027,-0.0262,-0.0258,-0.0227,-0.0209,-0.0203,-0.0174,-0.0162,-0.0162,-0.0122,-0.0089,-0.0008,-0.0006,0.0007,0.0002,0.0095,0.0094,0.0093,0.0027,0.0019,0.0013,0,0,0,0,0,0,-0.0287,-0.0266,-0.0255,-0.0258,-0.0239,-0.0202,-0.0201,-0.0181,-0.015,-0.0147,-0.0091,-0.0077,-0.0054,-0.0016,-0.0015,0.002,0.0048,0.0049,-0.0007,-0.0014,-0.0019,-0.003,0.003,0,0,0,0,0,-0.0298,-0.03,-0.0273,-0.0276,-0.027,-0.0237,-0.0227,-0.0209,-0.0177,-0.0164,-0.0123,-0.0081,-0.0049,-0.0024,0.0009,0.0035,0.0079,0.0039,0.0033,0.0028,0.0027,0.0084,0.0084,0.0088,0.0088,0.0088,0,0,-0.0309,-0.0298,-0.0299,-0.0283,-0.0266,-0.0267,-0.023,-0.0221,-0.022,-0.0155,-0.0141,-0.0102,-0.0048,-0.0026,-0.0011,0.0007,0.0048,0.0026,0.0021,0.0024,0.0083,0.0083,0.0083,0.0087,0.0088,0.0088,0,0,-0.0338,-0.0325,-0.0339,-0.0329,-0.0312,-0.0291,-0.0293,-0.0261,-0.0245,-0.0225,-0.0184,-0.0149,-0.0096,-0.006,-0.0035,-0.005,0.001,-0.0042,-0.007,-0.0016,-0.0015,-0.0014,0.0035,0.0041,-0.0039,-0.0039,-0.0039,0,-0.0355,-0.0369,-0.034,-0.0352,-0.0352,-0.0308,-0.0324,-0.0302,-0.0263,-0.0249,-0.0231,-0.0155,-0.0113,-0.0078,-0.0085,-0.0062,-0.0022,-0.0049,-0.0023,-0.0021,-0.0019,0.0032,0.004,-0.0042,-0.0042,-0.0042,-0.0041,0,-0.0393,-0.0407,-0.0415,-0.0418,-0.041,-0.0417,-0.0385,-0.0374,-0.0347,-0.0317,-0.028,-0.0218,-0.0171,-0.0155,-0.0123,-0.0091,-0.0065,-0.0042,-0.0006,-0.0024,0.0031,0.004,-0.0048,-0.0046,-0.0045,-0.0044,0,0,-0.0425,-0.0442,-0.0446,-0.0464,-0.0448,-0.0448,-0.0444,-0.0425,-0.0417,-0.037,-0.0351,-0.0293,-0.0252,-0.022,-0.0171,-0.012,-0.0074,-0.008,-0.0075,-0.0032,0.0047,0.0035,0.0044,-0.0044,-0.0043,-0.0042,0.0078,0,-0.0467,-0.0516,-0.0504,-0.0543,-0.0565,-0.0529,-0.0529,-0.0501,-0.0462,-0.043,-0.0357,-0.0319,-0.0278,-0.0251,-0.0198,-0.0101,-0.0053,-0.0109,0.006,0.0065,0.0054,0.0053,-0.0038,0.0085,0.0087,0.0088,0.009,0,-0.051,-0.0538,-0.0592,-0.0614,-0.0618,-0.0631,-0.0618,-0.0609,-0.0547,-0.0511,-0.0453,-0.0388,-0.0309,-0.0272,-0.0118,-0.0154,-0.0067,0.001,0.0017,0.0037,0.0069,0.0109,0.0107,0.0105,0.0104,0.0103,0.0102,0,-0.0555,-0.0597,-0.0647,-0.0656,-0.067,-0.0684,-0.0683,-0.0638,-0.0627,-0.0557,-0.0527,-0.0426,-0.0361,-0.0245,-0.009,-0.01,0.0088,0.0097,0.0168,0.0169,0.0177,0.0175,0.0199,0.0199,0.0199,0.0199,0.0198,0,-0.0602,-0.0642,-0.0678,-0.0707,-0.0758,-0.074,-0.0766,-0.0741,-0.0695,-0.0671,-0.0575,-0.0518,-0.0348,-0.0218,-0.0096,0.0067,0.0087,0.0164,0.0199,0.0143,0.0136,0.0184,0.018,0.0203,0.0202,0.0201,0.0201,0,-0.0641,-0.0667,-0.073,-0.0769,-0.0785,-0.082,-0.0834,-0.0838,-0.0783,-0.0746,-0.0723,-0.0571,-0.0397,-0.0225,-0.0012,0.0065,0.0218,0.027,0.02,0.0229,0.0261,0.0253,0.035,0.0351,0.0351,0.0352,0.0352,0,-0.0665,-0.0705,-0.0782,-0.0826,-0.0851,-0.0896,-0.092,-0.0891,-0.0878,-0.0771,-0.0745,-0.0573,-0.0458,-0.016,0.0007,0.0238,0.0264,0.0329,0.0285,0.0253,0.0277,0.0268,0.0259,0.0353,0.0353,0.0353,0.0353,0,-0.0707,-0.0739,-0.079,-0.0882,-0.0935,-0.0981,-0.1003,-0.0999,-0.0938,-0.0895,-0.0741,-0.0578,-0.0376,-0.0155,0.0032,0.0191,0.0276,0.0335,0.0334,0.0293,0.0257,0.0279,0.0269,0.0355,0.0355,0.0354,0.0354,0,-0.0731,-0.0777,-0.0848,-0.0922,-0.0996,-0.1033,-0.1045,-0.1004,-0.0976,-0.0845,-0.0792,-0.0566,-0.0426,-0.0178,-0.0008,0.015,0.0175,0.0198,0.0205,0.0205,0.0118,0.0049,0.0115,0,0,0,0,0,-0.0744,-0.0797,-0.0878,-0.0955,-0.1028,-0.1061,-0.1081,-0.107,-0.1012,-0.091,-0.0844,-0.0651,-0.0368,-0.0236,-0.0079,-0.0027,0.0179,0.0156,0.0203,0.0364,0.0362,0.0282,0,0,0,0,0,0,-0.0755,-0.0833,-0.0876,-0.0963,-0.1016,-0.1078,-0.1091,-0.1054,-0.0981,-0.09,-0.074,-0.0639,-0.0358,-0.0451,-0.008,-0.0031,0.0011,0.0299,0.0301,0.0365,0.0363,0.0362,0.0279,0,0,0,0,0]}]]